To NAV CANADA Home Page Login to a new session Search on AWWS site Feedback and Comments Disclaimer Vers la page française équivalente Tips FAQ What's new on the site To the Forecasts and Observations / NOTAM section To "File a Flight Plan" website Publications and other links Update of the User's profile FIC Telephone Numbers My Weather Data Folder Route Weather Data Regional Weather Data Local Weather Data To the Forecasts and Observations / NOTAM section
Request Generated 07/27/2016 at 09:41:36 UTC . Weather information available at that time is displayed.

METAR/TAF

PANGNIRTUNG/NU    (show WxCam)

LWIS CYXP 270900Z AUTO 04005KT 10/07 A3018=
LWIS CYXP 270800Z AUTO 00000KT 09/06 A3018=
LWIS CYXP 270700Z AUTO VRB02KT 08/06 A3018=

*** REMARK        : Forecast period has ended; this was the last TAF issued
*** REMARQUE : La période de prévision est échue; ceci était le dernier TAF qui a été émis
TAF CYXP 261838Z 2619/2622 VRB03KT P6SM FEW030
RMK NXT FCST WILL BE ISSUED AT 271245Z=
Your time UTC time
Weather data provided by Environment Canada and NAV CANADA